Powrót do katalogu

STARLINK-34538

AktywnyŁącznośćVLEO
NORAD 64689·PAYLOAD·🇺🇸 United States

Wystrzelony Jun 28, 2025 z Cape Canaveral Space Force Station

Loading…

Następne Przeloty (najbliższe 24 godziny)

TLE

ŚwieżeSource: CelesTrak SupGP

Epoka: Sep 14, 2026, 22:44 UTC

1 64689C 25139AB  26257.94770833  .00021437  00000+0  63337-3 0  2574
2 64689  53.1595 323.7411 0001223  82.4421 136.0645 15.34379469    10

Śledź STARLINK-34538 w czasie rzeczywistym z AllMySat

Download on the App Store